Location: Street
(51.1247°N, 2.7429°W)
Time: 09:09:55
(UTC+00:00)

Transit 2A Rocket - Pass Details

Date: 02 December 2020
Orbit: 592 x 911 km, 66.7° (Epoch: 16 January)

Event Time Altitude Azimuth Distance (km) Brightness Sun altitude
Exits shadow 06:35:24 - 329° (NNW) 2,441 7.1 -11.8°
Reaches altitude 10° 06:35:57 10° 334° (NNW) 2,311 7.1 -11.7°
Maximum altitude 06:39:02 15° 10° (N) 1,896 6.9 -11.2°
Drops below altitude 10° 06:41:58 10° 46° (NE) 2,182 7.7 -10.8°
Sets 06:45:11 0° 70° (ENE) 3,030 8.9 -10.3°
